Wind_Speed
22 8 20 17 19 23 22 17 13 10 11 12 16 14 17 17 12 12 13 13 13 13 12 12 11 10 10 10 12 13 16 18 19 23 22 24 23 25 24 26 25 26 24 24
23 24 15 18 18 20 18 14 17 13 12 7 7 13 17 23 19 14 15 14 14 13 13 12 11 9 8 8 8 10 12 13 16 20 21 22 23 28 28 27 26 27 28 25
21 21 17 17 17 16 13 13 14 15 9 9 11 6 9 13 17 16 15 14 13 12 12 11 10 9 7 7 7 6 7 10 13 14 18 21 23 28 28 29 29 32 31 31
16 15 20 15 18 14 13 11 12 10 12 3 5 7 10 11 18 14 13 13 12 11 11 9 9 9 8 6 5 5 4 5 6 8 11 15 18 23 25 27 29 32 33 34
13 9 13 19 7 14 8 10 11 11 7 7 4 5 3 5 4 11 12 11 11 10 10 9 9 8 8 6 4 3 2 4 7 10 14 16 18 20 22 26 31 33 34 35
9 15 19 24 16 11 4 10 12 9 10 10 10 10 8 16 13 12 11 11 10 10 9 8 8 5 6 5 3 1 3 7 12 16 20 25 28 30 30 29 29 28 32 34
17 15 23 15 11 7 9 2 11 12 11 12 10 6 14 12 10 9 9 9 9 9 9 8 6 7 7 4 5 2 5 8 11 16 19 20 24 29 34 34 33 33 32 35
18 21 17 20 23 11 9 9 7 4 9 7 8 9 9 9 8 8 8 8 8 8 7 9 8 9 8 6 3 5 7 10 14 18 23 25 24 24 26 27 27 29 31 34
13 15 10 10 16 10 7 9 7 6 6 6 9 9 8 7 6 6 6 7 7 9 7 9 10 12 10 7 8 6 8 13 18 23 31 23 20 20 20 20 21 25 28 31
7 4 2 18 8 14 7 10 7 6 8 7 8 7 7 6 6 6 5 7 8 8 9 7 10 12 10 9 10 6 11 15 19 29 37 25 16 12 11 12 18 20 25 25
16 6 4 22 5 11 9 9 9 6 6 6 5 6 6 6 6 6 6 7 8 9 9 9 12 12 14 13 10 7 10 10 16 28 37 38 35 26 14 7 3 9 15 19
11 16 6 18 12 9 11 10 10 10 8 6 5 6 8 9 8 7 6 7 7 8 10 13 14 17 16 13 10 9 8 9 15 21 27 28 35 39 38 30 18 11 7 2
3 16 14 27 19 12 10 11 11 9 8 7 8 12 11 11 10 9 7 7 7 8 9 13 16 21 17 14 10 9 8 8 9 13 19 23 25 35 40 40 41 43 39 36
6 8 10 22 16 15 16 13 11 8 8 9 12 13 12 11 11 8 6 7 7 9 10 12 16 20 18 14 13 8 6 1 7 11 15 15 20 23 27 29 33 35 36 39
3 10 11 14 12 17 18 15 12 10 10 13 12 13 12 11 11 9 8 8 8 8 9 13 19 17 16 14 12 5 5 5 8 9 9 11 12 16 20 22 24 28 28 30
7 3 11 14 19 18 16 14 11 12 14 13 13 13 12 11 10 10 9 10 9 8 8 13 19 20 14 12 7 8 8 5 10 10 9 9 7 9 14 16 16 16 13 21
3 10 10 15 15 13 12 12 12 14 13 13 13 12 12 11 11 11 11 9 9 8 5 5 14 17 15 9 10 10 10 11 10 11 8 8 8 7 10 9 9 8 10 15
10 5 3 6 8 10 12 11 11 12 13 13 14 14 13 13 13 13 12 11 11 10 10 11 11 13 14 13 11 11 11 12 11 10 10 9 9 8 8 8 9 9 10 14
13 8 3 2 7 10 11 11 11 12 13 15 15 15 13 13 13 14 13 12 12 11 10 11 15 15 13 14 13 10 10 10 10 10 10 11 9 8 9 10 11 11 13 13
13 9 7 6 5 11 12 12 12 13 14 15 15 14 14 14 14 14 14 13 11 9 12 13 14 11 11 12 15 11 11 12 10 10 10 11 9 9 9 10 10 10 11 10
18 15 13 11 13 12 14 14 15 15 14 15 15 15 15 15 15 15 15 15 14 11 12 15 14 11 11 12 15 10 12 12 12 12 12 12 11 11 11 12 11 11 10 10
18 17 17 23 21 22 17 14 14 13 15 15 15 14 15 15 16 16 16 15 14 18 14 15 15 14 13 15 13 12 12 13 13 13 14 14 14 13 14 14 14 13 12 12
12 13 14 19 20 19 18 17 14 14 16 18 18 18 17 15 16 17 17 19 16 19 18 17 16 19 20 16 13 14 14 14 14 14 14 14 16 16 15 16 17 16 15 14
7 11 12 14 11 15 15 17 25 13 20 23 19 19 18 17 16 16 14 14 17 21 19 19 22 22 21 17 15 15 16 16 17 16 16 15 16 17 18 18 18 18 17 16
5 6 11 16 3 8 12 16 24 28 23 23 20 19 20 20 20 17 17 18 21 21 25 22 27 24 21 19 17 17 16 17 18 18 18 17 17 16 17 19 19 19 18 16
7 4 5 13 13 13 16 21 19 21 21 21 19 17 17 18 18 19 19 20 21 24 22 22 29 31 27 25 22 21 19 18 18 22 21 20 19 19 19 20 20 20 20 18
6 6 7 7 10 10 12 18 17 13 16 18 22 24 25 21 16 15 16 19 21 23 23 24 25 30 30 28 27 24 22 20 20 19 21 22 22 22 22 22 21 21 20 19
Wind_Direction
259 239 263 252 202 224 231 254 259 360 256 193 168 184 193 173 170 167 161 157 155 155 160 164 171 178 186 196 204 207 214 221 226 226 230 224 218 228 230 237 238 236 232 228
257 268 215 262 203 211 218 244 263 255 201 261 94 171 197 170 174 189 181 169 164 159 158 157 160 162 168 178 194 208 222 228 230 236 240 237 229 235 239 241 245 239 237 235
246 250 239 235 245 209 200 222 247 256 247 291 151 192 240 183 166 196 188 176 172 167 164 165 161 166 173 178 191 204 218 219 226 233 241 250 248 245 243 247 241 238 232 227
250 241 253 228 229 244 220 226 231 243 274 334 318 194 213 222 197 179 188 186 179 175 172 170 158 159 166 171 183 191 213 240 252 258 258 255 255 253 251 252 246 243 241 239
247 220 234 259 164 221 235 246 267 251 248 237 118 119 131 172 180 171 192 186 183 180 178 169 168 194 178 168 180 177 223 283 287 285 281 275 269 260 252 252 252 249 244 242
246 221 215 251 199 179 255 248 234 202 216 167 176 218 197 169 167 164 169 172 171 175 176 172 177 178 172 170 175 188 289 307 303 299 294 289 283 276 262 252 248 246 250 248
241 257 223 88 57 171 207 81 175 174 202 185 189 44 119 144 151 157 160 162 169 179 182 181 189 198 168 167 205 275 344 342 344 338 332 324 293 280 274 267 256 244 239 246
209 246 250 108 178 202 99 113 91 128 177 193 145 131 151 153 163 166 170 173 181 194 206 225 187 177 156 173 128 43 27 5 9 356 350 332 316 295 280 271 260 252 241 243
195 232 344 101 250 169 125 128 134 147 139 175 189 181 193 189 190 191 199 213 212 204 203 230 178 157 162 160 109 77 57 35 25 18 8 348 326 306 283 264 258 250 240 238
164 169 315 258 149 152 144 140 153 164 158 179 186 200 211 223 217 199 206 198 193 189 197 209 178 164 154 144 124 100 62 40 36 35 26 14 358 336 298 273 251 241 231 231
197 192 32 280 213 149 153 148 156 145 165 181 195 193 214 192 181 181 186 191 195 198 197 191 179 169 152 137 136 103 85 56 52 59 54 51 43 34 28 29 274 226 228 233
187 187 150 280 198 169 155 168 163 156 153 168 184 178 169 159 158 158 169 172 173 183 184 179 166 168 152 148 158 133 116 88 65 70 64 58 65 62 54 57 63 83 112 144
152 168 190 262 213 170 165 177 166 158 161 170 165 161 157 150 144 145 140 152 161 173 173 182 177 170 164 162 147 138 145 129 92 82 73 82 82 79 80 78 70 78 85 92
204 163 224 244 187 165 169 176 161 151 160 166 162 162 157 152 146 147 155 157 164 174 180 183 180 170 174 174 178 168 158 144 122 127 107 97 94 96 85 89 88 83 80 84
195 197 217 180 178 174 165 164 162 157 164 162 168 166 160 158 155 158 159 156 159 165 178 180 174 169 171 195 199 193 174 189 164 158 130 118 97 101 106 100 91 87 88 88
193 273 159 175 163 167 158 160 166 167 168 168 174 170 162 162 164 156 156 152 151 154 173 184 184 185 176 183 179 157 181 189 167 163 155 151 140 126 117 124 108 95 102 110
164 169 158 154 151 154 156 168 166 167 172 176 178 172 163 167 167 160 158 153 148 138 131 129 179 185 189 193 154 159 154 134 141 141 145 151 147 142 138 122 126 125 129 121
239 314 96 120 146 167 165 167 170 174 182 181 179 174 170 176 175 171 165 158 147 142 142 145 138 142 149 157 158 161 160 156 155 161 164 158 161 164 155 155 153 146 148 140
220 205 191 161 172 179 172 171 167 176 179 180 180 178 178 180 178 175 171 167 164 162 167 160 165 154 166 170 169 170 170 167 168 168 168 168 161 165 167 168 163 165 160 158
213 208 183 188 166 195 184 174 170 171 176 180 180 177 181 182 180 179 179 181 183 184 183 185 177 174 185 192 173 186 189 184 180 179 185 179 181 181 181 174 169 169 177 181
200 199 196 171 236 195 191 184 180 174 173 177 178 183 186 186 185 185 188 193 194 199 190 207 186 191 201 201 192 197 202 202 199 197 199 199 199 198 195 193 192 190 190 193
188 193 193 202 210 204 201 194 190 183 184 186 185 185 186 188 190 195 199 201 205 208 201 204 200 200 208 216 206 211 212 213 214 212 212 209 209 209 208 206 204 206 207 205
187 196 195 196 201 197 180 192 200 208 206 202 198 195 194 195 195 195 204 210 199 223 210 211 214 213 215 211 216 217 222 221 220 217 215 215 216 215 214 213 210 210 208 207
141 164 171 178 177 185 196 226 233 234 233 224 214 210 209 205 212 212 213 216 215 212 216 211 219 227 226 216 219 223 223 225 226 224 225 226 225 223 218 214 211 209 208 207
128 134 181 174 206 202 197 195 232 238 229 223 222 221 223 224 225 226 222 222 228 223 221 214 219 231 225 216 223 225 226 223 222 226 226 228 225 222 216 211 209 208 209 213
88 157 115 187 202 225 203 204 227 219 214 216 219 222 229 231 233 235 234 230 227 235 220 219 222 225 226 220 217 220 222 225 225 222 221 223 225 220 218 214 211 210 209 214
101 129 179 172 197 207 208 202 207 204 210 218 231 247 237 220 224 237 240 237 233 230 233 222 226 229 223 221 218 219 221 220 223 221 223 221 222 221 218 218 216 216 216 214
Height
1430 1427 1435 1423 1433 1436 1438 1433 1445 1442 1435 1432 1438 1446 1451 1458 1469 1473 1478 1481 1485 1488 1492 1495 1498 1501 1503 1506 1508 1511 1513 1514 1515 1517 1519 1519 1521 1524 1525 1527 1527 1530 1532 1533
1437 1422 1427 1431 1421 1424 1429 1431 1432 1432 1453 1431 1432 1440 1447 1454 1465 1473 1477 1480 1484 1488 1491 1494 1496 1499 1501 1504 1506 1508 1509 1510 1512 1512 1512 1513 1515 1515 1518 1519 1520 1521 1523 1525
1445 1425 1422 1435 1421 1421 1424 1428 1432 1439 1431 1428 1434 1444 1448 1449 1460 1470 1475 1480 1484 1487 1490 1492 1494 1496 1499 1501 1502 1504 1505 1506 1506 1508 1508 1508 1509 1509 1508 1510 1512 1513 1514 1517
1440 1431 1462 1417 1409 1412 1419 1423 1425 1429 1432 1437 1442 1446 1452 1454 1458 1466 1474 1480 1483 1486 1489 1490 1492 1495 1497 1499 1501 1502 1503 1503 1503 1503 1504 1504 1504 1503 1503 1504 1504 1505 1507 1508
1446 1444 1456 1417 1416 1422 1424 1428 1425 1429 1434 1439 1448 1452 1458 1461 1463 1468 1475 1479 1483 1485 1487 1489 1491 1490 1493 1497 1499 1500 1501 1500 1499 1498 1497 1497 1496 1496 1496 1497 1496 1495 1497 1499
1443 1458 1457 1437 1407 1413 1419 1437 1425 1429 1436 1440 1452 1454 1448 1461 1467 1471 1475 1478 1481 1484 1486 1488 1488 1488 1491 1495 1497 1498 1497 1496 1495 1493 1491 1489 1486 1484 1484 1484 1484 1487 1488 1488
1450 1440 1426 1408 1414 1423 1440 1434 1418 1429 1436 1441 1449 1455 1460 1464 1467 1471 1474 1476 1479 1482 1484 1486 1486 1489 1490 1494 1494 1495 1494 1493 1491 1488 1485 1481 1477 1473 1470 1470 1471 1473 1476 1478
1451 1449 1436 1411 1419 1427 1422 1426 1428 1433 1438 1443 1449 1458 1462 1465 1469 1471 1474 1476 1479 1481 1482 1481 1484 1485 1489 1491 1493 1493 1493 1492 1488 1484 1478 1472 1467 1463 1459 1458 1458 1461 1464 1468
1425 1425 1417 1417 1418 1418 1421 1428 1434 1438 1443 1447 1452 1457 1461 1465 1468 1470 1472 1474 1477 1479 1479 1481 1481 1484 1488 1490 1492 1493 1493 1490 1487 1483 1476 1467 1461 1456 1453 1451 1451 1452 1454 1457
1417 1418 1421 1421 1417 1418 1423 1428 1435 1439 1444 1447 1451 1456 1460 1463 1465 1468 1471 1473 1474 1476 1478 1479 1481 1484 1487 1489 1492 1492 1492 1490 1487 1482 1474 1466 1460 1454 1449 1446 1445 1445 1448 1450
1414 1417 1424 1428 1419 1419 1424 1430 1436 1441 1445 1448 1451 1455 1459 1462 1465 1467 1469 1471 1473 1475 1477 1478 1480 1484 1486 1489 1491 1492 1493 1493 1488 1483 1477 1470 1464 1456 1450 1445 1444 1442 1445 1447
1406 1416 1416 1427 1424 1424 1428 1435 1439 1442 1446 1450 1452 1456 1459 1462 1464 1466 1468 1469 1470 1473 1474 1476 1479 1483 1486 1489 1490 1491 1493 1492 1489 1486 1481 1476 1474 1468 1461 1453 1448 1444 1443 1445
1409 1414 1417 1425 1427 1425 1430 1436 1440 1443 1446 1450 1453 1456 1460 1462 1464 1465 1467 1468 1470 1471 1473 1475 1477 1481 1485 1487 1490 1491 1492 1491 1490 1489 1486 1483 1481 1478 1475 1472 1467 1459 1457 1455
1416 1417 1422 1423 1422 1422 1429 1437 1439 1442 1446 1450 1454 1457 1460 1462 1463 1466 1467 1469 1469 1470 1472 1473 1476 1480 1484 1485 1488 1489 1490 1490 1491 1490 1490 1489 1485 1485 1485 1484 1479 1474 1474 1472
1415 1415 1415 1418 1421 1426 1430 1435 1438 1442 1447 1450 1455 1458 1459 1462 1465 1467 1468 1469 1469 1470 1471 1473 1475 1479 1482 1484 1487 1489 1489 1490 1490 1492 1492 1491 1490 1491 1491 1491 1489 1486 1486 1485
1416 1415 1413 1419 1423 1428 1429 1433 1437 1442 1446 1450 1455 1457 1459 1462 1465 1466 1468 1469 1470 1471 1471 1473 1475 1478 1481 1484 1487 1488 1489 1490 1491 1492 1494 1494 1494 1495 1494 1495 1495 1495 1496 1494
1414 1418 1418 1420 1423 1426 1428 1433 1437 1441 1446 1450 1454 1456 1458 1461 1465 1467 1469 1471 1471 1472 1472 1473 1474 1477 1481 1484 1487 1490 1491 1490 1493 1494 1497 1498 1498 1498 1499 1499 1500 1500 1500 1499
1419 1415 1416 1417 1420 1426 1430 1434 1437 1441 1446 1450 1453 1456 1458 1462 1464 1467 1469 1471 1473 1475 1476 1476 1477 1479 1483 1486 1489 1491 1492 1493 1495 1497 1498 1499 1500 1501 1501 1502 1503 1504 1504 1503
1418 1420 1419 1420 1423 1427 1431 1434 1437 1442 1446 1449 1453 1455 1458 1461 1464 1466 1469 1471 1473 1475 1477 1478 1479 1481 1484 1487 1489 1491 1492 1494 1496 1497 1498 1499 1500 1501 1502 1503 1504 1505 1506 1507
1413 1415 1417 1421 1422 1428 1432 1435 1438 1442 1445 1448 1452 1454 1457 1460 1462 1465 1467 1470 1472 1474 1476 1478 1479 1482 1484 1486 1487 1489 1491 1492 1494 1496 1498 1499 1500 1501 1502 1503 1504 1505 1507 1508
1411 1414 1417 1420 1427 1429 1433 1436 1439 1441 1444 1447 1449 1452 1455 1458 1460 1463 1466 1468 1471 1473 1475 1476 1479 1482 1483 1485 1486 1487 1489 1490 1491 1493 1495 1497 1498 1499 1500 1502 1504 1505 1506 1507
1409 1413 1417 1423 1427 1430 1432 1435 1439 1441 1443 1445 1448 1451 1453 1455 1458 1460 1463 1466 1468 1470 1473 1474 1476 1479 1481 1483 1485 1486 1487 1488 1489 1490 1492 1493 1495 1497 1498 1500 1501 1503 1505 1506
1408 1412 1416 1420 1424 1427 1428 1433 1437 1440 1442 1444 1446 1449 1450 1453 1455 1457 1458 1461 1464 1465 1470 1472 1474 1476 1478 1480 1483 1483 1484 1486 1487 1488 1489 1490 1491 1493 1494 1496 1498 1500 1502 1504
1410 1412 1415 1419 1422 1424 1426 1429 1432 1436 1441 1442 1444 1446 1448 1450 1452 1453 1456 1457 1458 1462 1465 1468 1469 1471 1474 1477 1478 1480 1481 1483 1484 1485 1486 1487 1488 1489 1490 1492 1494 1496 1499 1500
1412 1413 1414 1414 1417 1421 1425 1429 1434 1435 1437 1439 1441 1442 1444 1446 1448 1449 1451 1453 1454 1456 1458 1462 1464 1466 1468 1471 1473 1475 1476 1477 1479 1481 1483 1484 1485 1486 1487 1488 1490 1492 1495 1497
1410 1411 1412 1416 1419 1422 1424 1425 1429 1430 1432 1434 1435 1437 1438 1440 1441 1443 1446 1447 1449 1450 1453 1456 1456 1458 1461 1462 1465 1467 1469 1470 1472 1474 1476 1478 1480 1481 1483 1484 1486 1488 1490 1491
1413 1414 1415 1416 1417 1419 1420 1421 1423 1424 1426 1426 1428 1428 1427 1428 1432 1437 1440 1442 1443 1444 1445 1449 1450 1449 1452 1454 1456 1459 1461 1463 1465 1466 1468 1471 1474 1476 1477 1480 1482 1483 1485 1486